Regional Weather Roundup
Issued by NWS

Home | Current Version | Previous Version | Graphics & Text | Print | Product List | Glossary On
Versions: 1 2 3 4 5 6 7 8 9 10 11 12 13 14 15 16 17 18 19 20 21 22 23 24 25 26 27 28 29 30 31 32 33 34 35 36 37 38 39 40 41 42 43 44 45 46 47 48 49 50
000
ASUS45 KPSR 290310
RWRAZ

ARIZONA REGIONAL HOURLY WEATHER ROUNDUP
NATIONAL WEATHER SERVICE PHOENIX AZ
800 PM MST FRI NOV 28 2014

NOTE: FAIR INDICATES FEW OR NO CLOUDS BELOW 12,000 FEET WITH NO
SIGNIFICANT WEATHER AND/OR OBSTRUCTIONS TO VISIBILITY.

AZZ001>003-036-290400-
NORTHWEST ARIZONA

CITY           SKY/WX    TMP DP  RH WIND       PRES   REMARKS
BULLHEAD CITY  CLEAR     64  23  20 CALM      29.89S
KINGMAN        CLEAR     51  16  24 S7        29.98S
$$

AZZ004>008-015-016-018-290400-
NORTH CENTRAL ARIZONA

CITY           SKY/WX    TMP DP  RH WIND       PRES   REMARKS
GRAND CANYON   CLEAR     27   3  35 CALM      30.12R
PRESCOTT       CLEAR     51  16  24 S6        30.08S
FLAGSTAFF      CLEAR     41  15  35 SW6       30.15S
PAYSON         CLEAR     50  18  27 CALM      30.12R
PAGE           CLEAR     45  20  36 CALM      29.99S
$$

AZZ009>014-017-290400-
NORTHEAST ARIZONA

CITY           SKY/WX    TMP DP  RH WIND       PRES   REMARKS
WINSLOW        PTCLDY    50  14  23 SW12      30.05S
SAINT JOHNS    PTCLDY    53  16  23 S12       30.08R
SHOW LOW       CLEAR     46  16  29 S13       30.17F
$$

AZZ023-290400-
GREATER PHOENIX AREA

CITY           SKY/WX    TMP DP  RH WIND       PRES   REMARKS
PHOENIX        CLEAR     68  31  25 CALM      29.89S
BUCKEYE          N/A     57  23  26 NE7       29.91R
GLENDALE       CLEAR     61  39  44 CALM      29.91S
LUKE AFB       CLEAR     58  35  42 CALM      29.90R
DEER VALLEY    CLEAR     59  24  26 CALM      29.91S
SCOTTSDALE     CLEAR     65  29  25 N3        29.93S
MESA-FALCON    CLEAR     63  30  29 SW7       29.91S
MESA-GATEWAY   CLEAR     63  28  27 E5        29.93S
CHANDLER       CLEAR     63  36  36 VRB3      29.91S
$$

AZZ027-028-290400-
SOUTHWEST MARICOPA COUNTY AND PINAL COUNTY

CITY           SKY/WX    TMP DP  RH WIND       PRES   REMARKS
CASA GRANDE    CLEAR     55  25  30 CALM      29.93S
$$

AZZ503-504-507>509-290400-
SOUTHEAST ARIZONA

CITY           SKY/WX    TMP DP  RH WIND       PRES   REMARKS
TUCSON         CLEAR     66  22  18 S5        30.00S
DAVIS-MONTHAN  CLEAR     62  22  21 CALM      29.99R
RYAN FIELD       N/A    N/A N/A N/A S9        29.99S
NOGALES        CLEAR     56  21  25 E5        30.06R
SIERRA VISTA   CLEAR     60  18  19 SW12      30.09R
DOUGLAS        CLEAR     49  19  30 SE5       30.07S
SAFFORD        CLEAR     53  21  28 E5        30.02R
$$

AZZ020-021-025-026-031-290400-
SOUTHWEST ARIZONA

CITY           SKY/WX    TMP DP  RH WIND       PRES   REMARKS
YUMA           CLEAR     65  34  31 CALM      29.87R
$$

CAZ031-033-041-043-047-048-061-290400-
SOUTHERN CALIFORNIA

CITY           SKY/WX    TMP DP  RH WIND       PRES   REMARKS
DOWNTOWN L.A.  CLEAR     63  49  60 CALM      29.89R
L.A. AIRPORT   PTCLDY    63  58  83 CALM      29.90R
SAN DIEGO      PTCLDY    64  61  88 CALM      29.91R FOG
BURBANK        CLEAR     64  34  32 CALM      29.90R
ONTARIO        CLEAR     66  32  28 W5        29.91R
RIVERSIDE      CLEAR     68  36  30 CALM      29.91R
PALM SPRINGS   CLEAR     67  30  25 N7        29.90R
EL CENTRO NAS  CLEAR     65  34  31 CALM      29.85S
IMPERIAL       CLEAR     64  34  32 CALM      29.85S
BLYTHE         CLEAR     62  28  27 CALM      29.87S
NEEDLES        CLEAR     60  19  20 W8        29.89S
$$

NVZ020-UTZ003-290400-
SOUTHERN NEVADA-UTAH

CITY           SKY/WX    TMP DP  RH WIND       PRES   REMARKS
LAS VEGAS      CLEAR     56  23  27 SW7       29.87S
SALT LAKE CITY PTCLDY    56  15  20 S12       29.79F
$$

NMZ009-TXZ055-290400-
NEW MEXICO-WEST TEXAS

CITY           SKY/WX    TMP DP  RH WIND       PRES   REMARKS
ALBUQUERQUE    CLEAR     45  20  36 E5        30.09S
EL PASO        PTCLDY    53  21  28 CALM      30.07F
$$


........................KEY........................
SKY/WX - SKY CONDITION/WEATHER
TMP    - TEMPERATURE IN FAHRENHEIT
DP     - DEW POINT IN FAHRENHEIT
RH     - RELATIVE HUMIDITY IN PERCENT
WIND   - DIRECTION AND SPEED IN MILES PER HOUR (MPH)
VRB    - VARIABLE WIND DIRECTION
PRES   - MEAN SEA LEVEL PRESSURE IN INCHES OF MERCURY
         F - FALLING PRESSURE   R - RISING PRESSURE
         S - STEADY PRESSURE
VSB    - VISIBILITY IN MILES
HX     - HEAT INDEX IN FAHRENHEIT
WCI    - WIND CHILL INDEX IN FAHRENHEIT
TC     - TEMPERATURE IN CELSIUS WHICH IS ALSO KNOWN AS
         TEMPERATURE IN CENTIGRADE
AFB    - AIR FORCE BASE
         LUKE AFB IS LUKE AIR FORCE BASE
         DAVIS-MONTHAN IS DAVIS-MONTHAN AIR FORCE BASE
NAS    - NAVAL AIR STATION
         EL CENTRO NAS IS EL CENTRO NAVAL AIR STATION
N/A    - NOT AVAILABLE



USA.gov is the U.S. government's official web portal to all federal, state and local government web resources and services.